Time,TemperatureF,DewpointF,PressureIn,WindDirection,WindDirectionDegrees,WindSpeedMPH,WindSpeedGustMPH,Humidity,HourlyPrecipIn,Conditions,Clouds,dailyrainin,SoftwareType,DateUTC
2013-01-16 00:04:00,19.1,8.2,30.70,WSW,237,2.0,2.0,62,0.00,,---,0.00,VWS V14.01,2013-01-16 07:04:00,
2013-01-16 00:09:00,19.1,8.6,30.70,SW,236,5.0,6.0,63,0.00,,---,0.00,VWS V14.01,2013-01-16 07:09:00,
2013-01-16 00:14:00,19.2,8.7,30.70,SW,222,5.0,5.0,63,0.00,,---,0.00,VWS V14.01,2013-01-16 07:14:00,
2013-01-16 00:19:00,19.1,8.6,30.70,SW,236,4.0,5.0,63,0.00,,---,0.00,VWS V14.01,2013-01-16 07:19:00,
2013-01-16 00:24:00,19.1,8.6,30.70,WSW,249,0.0,2.0,63,0.00,,---,0.00,VWS V14.01,2013-01-16 07:24:00,
2013-01-16 00:29:00,19.0,8.5,30.70,WSW,249,3.0,3.0,63,0.00,,---,0.00,VWS V14.01,2013-01-16 07:29:00,
2013-01-16 00:34:00,19.0,8.5,30.70,WSW,249,4.0,5.0,63,0.00,,---,0.00,VWS V14.01,2013-01-16 07:34:00,
2013-01-16 00:39:00,19.1,8.9,30.70,SW,236,4.0,10.0,64,0.00,,---,0.00,VWS V14.01,2013-01-16 07:39:00,
2013-01-16 00:44:00,19.2,9.0,30.69,WSW,246,2.0,8.0,64,0.00,,---,0.00,VWS V14.01,2013-01-16 07:44:00,
2013-01-16 00:49:00,19.3,9.1,30.69,SSW,210,0.0,4.0,64,0.00,,---,0.00,VWS V14.01,2013-01-16 07:49:00,
2013-01-16 00:54:00,19.5,9.3,30.69,WSW,240,1.0,1.0,64,0.00,,---,0.00,VWS V14.01,2013-01-16 07:54:00,
2013-01-16 00:59:00,19.6,9.4,30.69,SSW,207,0.0,1.0,64,0.00,,---,0.00,VWS V14.01,2013-01-16 07:59:00,
2013-01-16 01:04:00,19.5,9.3,30.69,SSW,207,4.0,4.0,64,0.00,,---,0.00,VWS V14.01,2013-01-16 08:04:00,
2013-01-16 01:10:00,19.5,9.7,30.68,SSW,208,1.0,2.0,65,0.00,,---,0.00,VWS V14.01,2013-01-16 08:10:00,
2013-01-16 01:15:00,19.5,9.7,30.68,WSW,244,9.0,9.0,65,0.00,,---,0.00,VWS V14.01,2013-01-16 08:15:00,
2013-01-16 01:20:00,19.5,10.0,30.68,WSW,247,1.0,4.0,66,0.00,,---,0.00,VWS V14.01,2013-01-16 08:20:00,
2013-01-16 01:25:00,19.8,10.3,30.68,West,281,1.0,10.0,66,0.00,,---,0.00,VWS V14.01,2013-01-16 08:25:00,
2013-01-16 01:30:00,20.0,10.5,30.68,South,178,1.0,7.0,66,0.00,,---,0.00,VWS V14.01,2013-01-16 08:30:00,
2013-01-16 01:35:00,20.0,10.5,30.68,WSW,254,1.0,4.0,66,0.00,,---,0.00,VWS V14.01,2013-01-16 08:35:00,
2013-01-16 01:40:00,19.8,10.3,30.68,South,189,5.0,7.0,66,0.00,,---,0.00,VWS V14.01,2013-01-16 08:40:00,
2013-01-16 01:45:00,19.7,10.2,30.68,SSE,166,10.0,10.0,66,0.00,,---,0.00,VWS V14.01,2013-01-16 08:45:00,
2013-01-16 01:50:00,19.8,10.6,30.68,SW,231,1.0,2.0,67,0.00,,---,0.00,VWS V14.01,2013-01-16 08:50:00,
2013-01-16 01:55:00,20.1,10.9,30.68,South,180,7.0,7.0,67,0.00,,---,0.00,VWS V14.01,2013-01-16 08:55:00,
2013-01-16 02:00:00,20.2,10.7,30.68,South,187,2.0,5.0,66,0.00,,---,0.00,VWS V14.01,2013-01-16 09:00:00,
2013-01-16 02:05:00,20.1,10.2,30.68,SSE,166,7.0,7.0,65,0.00,,---,0.00,VWS V14.01,2013-01-16 09:05:00,
2013-01-16 02:10:00,20.3,10.4,30.67,SSW,196,1.0,1.0,65,0.00,,---,0.00,VWS V14.01,2013-01-16 09:10:00,
2013-01-16 02:15:00,20.4,10.5,30.67,SSW,207,10.0,10.0,65,0.00,,---,0.00,VWS V14.01,2013-01-16 09:15:00,
2013-01-16 02:20:00,20.7,10.5,30.68,WSW,246,2.0,4.0,64,0.00,,---,0.00,VWS V14.01,2013-01-16 09:20:00,
2013-01-16 02:25:00,21.0,10.4,30.68,West,259,1.0,9.0,63,0.00,,---,0.00,VWS V14.01,2013-01-16 09:25:00,
2013-01-16 02:30:00,21.1,10.1,30.69,WNW,286,1.0,5.0,62,0.00,,---,0.00,VWS V14.01,2013-01-16 09:30:00,
2013-01-16 02:35:00,21.1,10.1,30.69,West,267,5.0,8.0,62,0.00,,---,0.00,VWS V14.01,2013-01-16 09:35:00,
2013-01-16 02:40:00,21.2,9.9,30.69,WSW,240,3.0,5.0,61,0.00,,---,0.00,VWS V14.01,2013-01-16 09:40:00,
2013-01-16 02:45:00,21.3,10.0,30.69,West,261,2.0,9.0,61,0.00,,---,0.00,VWS V14.01,2013-01-16 09:45:00,
2013-01-16 02:50:00,21.3,10.0,30.69,SSW,204,0.0,7.0,61,0.00,,---,0.00,VWS V14.01,2013-01-16 09:50:00,
2013-01-16 02:55:00,21.1,9.8,30.69,SSW,204,0.0,1.0,61,0.00,,---,0.00,VWS V14.01,2013-01-16 09:55:00,
2013-01-16 03:00:00,20.9,9.6,30.69,WSW,244,7.0,11.0,61,0.00,,---,0.00,VWS V14.01,2013-01-16 10:00:00,
2013-01-16 03:06:00,20.7,9.8,30.69,SW,222,2.0,9.0,62,0.00,,---,0.00,VWS V14.01,2013-01-16 10:06:00,
2013-01-16 03:11:00,20.6,9.7,30.68,SW,221,5.0,5.0,62,0.00,,---,0.00,VWS V14.01,2013-01-16 10:11:00,
2013-01-16 03:16:00,20.7,9.8,30.68,West,259,6.0,8.0,62,0.00,,---,0.00,VWS V14.01,2013-01-16 10:16:00,
2013-01-16 03:21:00,21.1,10.1,30.67,SW,218,2.0,4.0,62,0.00,,---,0.00,VWS V14.01,2013-01-16 10:21:00,
2013-01-16 03:26:00,21.2,10.2,30.67,SSW,213,2.0,4.0,62,0.00,,---,0.00,VWS V14.01,2013-01-16 10:26:00,
2013-01-16 03:31:00,21.3,10.3,30.67,West,262,6.0,6.0,62,0.00,,---,0.00,VWS V14.01,2013-01-16 10:31:00,
2013-01-16 03:36:00,21.4,10.8,30.66,West,259,9.0,12.0,63,0.00,,---,0.00,VWS V14.01,2013-01-16 10:36:00,
2013-01-16 03:41:00,21.5,10.9,30.66,WSW,258,8.0,8.0,63,0.00,,---,0.00,VWS V14.01,2013-01-16 10:41:00,
2013-01-16 03:46:00,21.6,11.0,30.65,SW,219,4.0,7.0,63,0.00,,---,0.00,VWS V14.01,2013-01-16 10:46:00,
2013-01-16 03:51:00,21.6,11.0,30.65,SSW,200,4.0,5.0,63,0.00,,---,0.00,VWS V14.01,2013-01-16 10:51:00,
2013-01-16 03:56:00,21.5,10.5,30.64,SSW,198,2.0,5.0,62,0.00,,---,0.00,VWS V14.01,2013-01-16 10:56:00,
2013-01-16 04:01:00,21.3,10.7,30.64,SSW,200,7.0,10.0,63,0.00,,---,0.00,VWS V14.01,2013-01-16 11:01:00,
2013-01-16 04:06:00,21.4,11.1,30.64,SSW,199,2.0,4.0,64,0.00,,---,0.00,VWS V14.01,2013-01-16 11:06:00,
2013-01-16 04:11:00,21.5,10.9,30.64,SSW,195,2.0,7.0,63,0.00,,---,0.00,VWS V14.01,2013-01-16 11:11:00,
2013-01-16 04:16:00,21.8,11.5,30.64,WSW,250,3.0,4.0,64,0.00,,---,0.00,VWS V14.01,2013-01-16 11:16:00,
2013-01-16 04:21:00,22.2,11.9,30.63,SSW,205,0.0,1.0,64,0.00,,---,0.00,VWS V14.01,2013-01-16 11:21:00,
2013-01-16 04:26:00,22.4,12.1,30.63,NW,304,8.0,10.0,64,0.00,,---,0.00,VWS V14.01,2013-01-16 11:26:00,
2013-01-16 04:31:00,22.4,12.4,30.63,West,263,4.0,13.0,65,0.00,,---,0.00,VWS V14.01,2013-01-16 11:31:00,
2013-01-16 04:36:00,22.4,12.8,30.63,WSW,251,7.0,13.0,66,0.00,,---,0.00,VWS V14.01,2013-01-16 11:36:00,
2013-01-16 04:41:00,22.4,13.1,30.62,NNW,330,5.0,10.0,67,0.00,,---,0.00,VWS V14.01,2013-01-16 11:41:00,
2013-01-16 04:46:00,22.4,13.1,30.62,WSW,244,1.0,7.0,67,0.00,,---,0.00,VWS V14.01,2013-01-16 11:46:00,
2013-01-16 04:51:00,22.2,13.3,30.62,WSW,258,0.0,5.0,68,0.00,,---,0.00,VWS V14.01,2013-01-16 11:51:00,
2013-01-16 04:56:00,22.1,13.5,30.62,West,263,0.0,1.0,69,0.00,,---,0.00,VWS V14.01,2013-01-16 11:56:00,
2013-01-16 05:02:00,22.0,13.4,30.62,WSW,252,7.0,9.0,69,0.00,,---,0.00,VWS V14.01,2013-01-16 12:02:00,
2013-01-16 05:07:00,22.1,15.7,30.62,West,271,7.0,13.0,76,0.00,,---,0.00,VWS V14.01,2013-01-16 12:07:00,
2013-01-16 05:12:00,22.3,14.0,30.61,WSW,242,2.0,13.0,70,0.00,,---,0.00,VWS V14.01,2013-01-16 12:12:00,
2013-01-16 05:17:00,22.4,14.1,30.61,West,268,2.0,7.0,70,0.00,,---,0.00,VWS V14.01,2013-01-16 12:17:00,
2013-01-16 05:22:00,22.6,14.3,30.61,SW,223,6.0,13.0,70,0.00,,---,0.00,VWS V14.01,2013-01-16 12:22:00,
2013-01-16 05:27:00,22.8,14.5,30.61,WSW,252,7.0,21.0,70,0.00,,---,0.00,VWS V14.01,2013-01-16 12:27:00,
2013-01-16 05:32:00,23.0,14.4,30.61,SSW,208,6.0,7.0,69,0.00,,---,0.00,VWS V14.01,2013-01-16 12:32:00,
2013-01-16 05:37:00,23.1,14.5,30.60,SSW,212,0.0,12.0,69,0.00,,---,0.00,VWS V14.01,2013-01-16 12:37:00,
2013-01-16 05:42:00,23.2,14.2,30.60,SSW,198,1.0,1.0,68,0.00,,---,0.00,VWS V14.01,2013-01-16 12:42:00,
2013-01-16 05:47:00,23.2,14.2,30.60,SW,235,3.0,3.0,68,0.00,,---,0.00,VWS V14.01,2013-01-16 12:47:00,
2013-01-16 05:52:00,23.2,14.2,30.60,SSE,167,1.0,9.0,68,0.00,,---,0.00,VWS V14.01,2013-01-16 12:52:00,
2013-01-16 05:57:00,23.4,14.4,30.60,SSW,206,2.0,7.0,68,0.00,,---,0.00,VWS V14.01,2013-01-16 12:57:00,
2013-01-16 06:02:00,23.3,14.3,30.61,SSW,207,1.0,5.0,68,0.00,,---,0.00,VWS V14.01,2013-01-16 13:02:00,
2013-01-16 06:07:00,23.2,13.9,30.61,SSW,207,0.0,2.0,67,0.00,,---,0.00,VWS V14.01,2013-01-16 13:07:00,
2013-01-16 06:12:00,23.3,14.3,30.60,SW,231,6.0,6.0,68,0.00,,---,0.00,VWS V14.01,2013-01-16 13:12:00,
2013-01-16 06:17:00,23.4,14.4,30.61,WNW,284,6.0,9.0,68,0.00,,---,0.00,VWS V14.01,2013-01-16 13:17:00,
2013-01-16 06:22:00,23.4,14.4,30.60,SW,236,6.0,13.0,68,0.00,,---,0.00,VWS V14.01,2013-01-16 13:22:00,
2013-01-16 06:27:00,23.3,14.3,30.61,WSW,245,2.0,11.0,68,0.00,,---,0.00,VWS V14.01,2013-01-16 13:27:00,
2013-01-16 06:32:00,23.0,14.4,30.61,WSW,255,5.0,16.0,69,0.00,,---,0.00,VWS V14.01,2013-01-16 13:32:00,
2013-01-16 06:37:00,23.1,14.5,30.61,WSW,254,7.0,8.0,69,0.00,,---,0.00,VWS V14.01,2013-01-16 13:37:00,
2013-01-16 06:42:00,23.1,14.5,30.60,NW,304,6.0,7.0,69,0.00,,---,0.00,VWS V14.01,2013-01-16 13:42:00,
2013-01-16 06:47:00,22.9,14.3,30.60,West,271,5.0,5.0,69,0.00,,---,0.00,VWS V14.01,2013-01-16 13:47:00,
2013-01-16 06:52:00,22.8,14.2,30.61,WSW,253,8.0,11.0,69,0.00,,---,0.00,VWS V14.01,2013-01-16 13:52:00,
2013-01-16 06:57:00,23.0,14.4,30.61,WSW,240,6.0,11.0,69,0.00,,---,0.00,VWS V14.01,2013-01-16 13:57:00,
2013-01-16 07:02:00,22.9,14.3,30.61,WNW,289,7.0,9.0,69,0.00,,---,0.00,VWS V14.01,2013-01-16 14:02:00,
2013-01-16 07:07:00,22.7,14.1,30.61,WNW,302,10.0,18.0,69,0.00,,---,0.00,VWS V14.01,2013-01-16 14:07:00,
2013-01-16 07:12:00,22.9,14.3,30.61,WNW,290,11.0,13.0,69,0.00,,---,0.00,VWS V14.01,2013-01-16 14:12:00,
2013-01-16 07:17:00,23.3,14.6,30.61,West,276,7.0,10.0,69,0.00,,---,0.00,VWS V14.01,2013-01-16 14:17:00,
2013-01-16 07:22:00,23.5,14.5,30.61,WNW,295,7.0,11.0,68,0.00,,---,0.00,VWS V14.01,2013-01-16 14:22:00,
2013-01-16 07:27:00,23.4,14.4,30.61,WNW,295,6.0,14.0,68,0.00,,---,0.00,VWS V14.01,2013-01-16 14:27:00,
2013-01-16 07:32:00,23.4,14.4,30.61,WNW,289,8.0,10.0,68,0.00,,---,0.00,VWS V14.01,2013-01-16 14:32:00,
2013-01-16 07:37:00,23.4,14.4,30.61,WNW,294,6.0,11.0,68,0.00,,---,0.00,VWS V14.01,2013-01-16 14:37:00,
2013-01-16 07:42:00,23.3,14.3,30.60,WNW,298,3.0,7.0,68,0.00,,---,0.00,VWS V14.01,2013-01-16 14:42:00,
2013-01-16 07:47:00,23.3,14.3,30.60,WNW,288,12.0,15.0,68,0.00,,---,0.00,VWS V14.01,2013-01-16 14:47:00,
2013-01-16 07:52:00,23.6,14.6,30.60,WNW,293,7.0,8.0,68,0.00,,---,0.00,VWS V14.01,2013-01-16 14:52:00,
2013-01-16 07:57:00,23.9,14.6,30.60,WNW,285,7.0,11.0,67,0.00,,---,0.00,VWS V14.01,2013-01-16 14:57:00,
2013-01-16 08:02:00,24.2,14.5,30.60,WSW,247,9.0,13.0,66,0.00,,---,0.00,VWS V14.01,2013-01-16 15:02:00,
2013-01-16 08:07:00,24.3,14.6,30.61,West,277,4.0,14.0,66,0.00,,---,0.00,VWS V14.01,2013-01-16 15:07:00,
2013-01-16 08:12:00,24.4,14.3,30.61,WSW,244,9.0,11.0,65,0.00,,---,0.00,VWS V14.01,2013-01-16 15:12:00,
2013-01-16 08:17:00,24.9,14.8,30.61,WSW,251,4.0,12.0,65,0.00,,---,0.00,VWS V14.01,2013-01-16 15:17:00,
2013-01-16 08:22:00,25.8,15.3,30.61,WSW,241,1.0,10.0,64,0.00,,---,0.00,VWS V14.01,2013-01-16 15:22:00,
2013-01-16 08:27:00,26.7,15.4,30.61,WSW,257,6.0,11.0,62,0.00,,---,0.00,VWS V14.01,2013-01-16 15:27:00,
2013-01-16 08:32:00,27.4,15.4,30.62,West,277,4.0,5.0,60,0.00,,---,0.00,VWS V14.01,2013-01-16 15:32:00,
2013-01-16 08:37:00,27.9,15.4,30.61,West,264,4.0,5.0,59,0.00,,---,0.00,VWS V14.01,2013-01-16 15:37:00,
2013-01-16 08:42:00,28.5,15.6,30.61,WSW,248,5.0,6.0,58,0.00,,---,0.00,VWS V14.01,2013-01-16 15:42:00,
2013-01-16 08:47:00,29.2,15.5,30.61,WSW,246,5.0,6.0,56,0.00,,---,0.00,VWS V14.01,2013-01-16 15:47:00,
2013-01-16 08:52:00,29.8,15.2,30.62,West,263,0.0,6.0,54,0.00,,---,0.00,VWS V14.01,2013-01-16 15:52:00,
2013-01-16 08:57:00,30.3,15.7,30.62,SSW,211,2.0,7.0,54,0.00,,---,0.00,VWS V14.01,2013-01-16 15:57:00,
2013-01-16 09:02:00,31.0,15.4,30.62,SSW,202,8.0,8.0,52,0.00,,---,0.00,VWS V14.01,2013-01-16 16:02:00,
2013-01-16 09:07:00,31.4,15.4,30.62,South,190,1.0,7.0,51,0.00,,---,0.00,VWS V14.01,2013-01-16 16:07:00,
2013-01-16 09:12:00,31.8,15.8,30.62,West,273,6.0,12.0,51,0.00,,---,0.00,VWS V14.01,2013-01-16 16:12:00,
2013-01-16 09:17:00,31.9,15.4,30.62,WSW,255,4.0,7.0,50,0.00,,---,0.00,VWS V14.01,2013-01-16 16:17:00,
2013-01-16 09:22:00,31.7,14.7,30.61,West,275,4.0,5.0,49,0.00,,---,0.00,VWS V14.01,2013-01-16 16:22:00,
2013-01-16 09:27:00,31.4,14.9,30.62,West,262,5.0,7.0,50,0.00,,---,0.00,VWS V14.01,2013-01-16 16:27:00,
2013-01-16 09:32:00,31.3,15.3,30.61,SSW,194,5.0,12.0,51,0.00,,---,0.00,VWS V14.01,2013-01-16 16:32:00,
2013-01-16 09:37:00,31.2,14.7,30.61,SSW,205,1.0,6.0,50,0.00,,---,0.00,VWS V14.01,2013-01-16 16:37:00,
2013-01-16 09:42:00,31.4,15.4,30.61,SSW,203,1.0,7.0,51,0.00,,---,0.00,VWS V14.01,2013-01-16 16:42:00,
2013-01-16 09:47:00,32.0,15.5,30.60,South,181,5.0,5.0,50,0.00,,---,0.00,VWS V14.01,2013-01-16 16:47:00,
2013-01-16 09:52:00,32.7,16.6,30.60,South,173,11.0,11.0,51,0.00,,---,0.00,VWS V14.01,2013-01-16 16:52:00,
2013-01-16 09:57:00,33.5,16.4,30.60,SSW,199,7.0,7.0,49,0.00,,---,0.00,VWS V14.01,2013-01-16 16:57:00,
2013-01-16 10:02:00,33.9,15.8,30.60,SSW,196,5.0,8.0,47,0.00,,---,0.00,VWS V14.01,2013-01-16 17:02:00,
2013-01-16 10:07:00,34.1,16.0,30.60,South,173,5.0,13.0,47,0.00,,---,0.00,VWS V14.01,2013-01-16 17:07:00,
2013-01-16 10:12:00,33.5,14.9,30.60,SW,219,9.0,19.0,46,0.00,,---,0.00,VWS V14.01,2013-01-16 17:12:00,
2013-01-16 10:17:00,33.4,15.8,30.60,SW,221,9.0,10.0,48,0.00,,---,0.00,VWS V14.01,2013-01-16 17:17:00,
2013-01-16 10:22:00,33.5,16.4,30.60,SW,231,6.0,12.0,49,0.01,,---,0.01,VWS V14.01,2013-01-16 17:22:00,
2013-01-16 10:27:00,33.8,15.7,30.60,SW,234,9.0,10.0,47,0.01,,---,0.01,VWS V14.01,2013-01-16 17:27:00,
2013-01-16 10:32:00,34.1,16.5,30.60,West,280,1.0,5.0,48,0.01,,---,0.01,VWS V14.01,2013-01-16 17:32:00,
2013-01-16 10:37:00,34.6,16.5,30.60,SSW,202,7.0,10.0,47,0.01,,---,0.01,VWS V14.01,2013-01-16 17:37:00,
2013-01-16 10:42:00,34.8,16.1,30.60,South,191,6.0,9.0,46,0.01,,---,0.01,VWS V14.01,2013-01-16 17:42:00,
2013-01-16 10:47:00,35.2,16.0,30.59,SW,222,5.0,7.0,45,0.01,,---,0.01,VWS V14.01,2013-01-16 17:47:00,
2013-01-16 10:52:00,35.4,16.7,30.59,SW,227,6.0,7.0,46,0.01,,---,0.01,VWS V14.01,2013-01-16 17:52:00,
2013-01-16 10:57:00,36.1,16.3,30.58,South,184,4.0,7.0,44,0.01,,---,0.01,VWS V14.01,2013-01-16 17:57:00,
2013-01-16 11:02:00,37.0,17.1,30.58,SSW,210,5.0,7.0,44,0.01,,---,0.01,VWS V14.01,2013-01-16 18:02:00,
2013-01-16 11:07:00,37.5,17.0,30.58,SSW,207,1.0,8.0,43,0.01,,---,0.01,VWS V14.01,2013-01-16 18:07:00,
2013-01-16 11:12:00,37.9,16.9,30.58,SW,223,7.0,10.0,42,0.01,,---,0.01,VWS V14.01,2013-01-16 18:12:00,
2013-01-16 11:17:00,37.9,16.3,30.57,SW,232,5.0,11.0,41,0.01,,---,0.01,VWS V14.01,2013-01-16 18:17:00,
2013-01-16 11:22:00,38.0,16.4,30.57,SW,217,5.0,9.0,41,0.00,,---,0.01,VWS V14.01,2013-01-16 18:22:00,
2013-01-16 11:27:00,38.1,15.9,30.57,WSW,244,6.0,8.0,40,0.00,,---,0.01,VWS V14.01,2013-01-16 18:27:00,
2013-01-16 11:32:00,38.0,15.8,30.56,SW,221,8.0,9.0,40,0.00,,---,0.01,VWS V14.01,2013-01-16 18:32:00,
2013-01-16 11:37:00,38.2,17.1,30.57,WSW,239,8.0,8.0,42,0.00,,---,0.01,VWS V14.01,2013-01-16 18:37:00,
2013-01-16 11:42:00,38.6,16.4,30.57,West,280,10.0,11.0,40,0.00,,---,0.01,VWS V14.01,2013-01-16 18:42:00,
2013-01-16 11:47:00,38.6,15.8,30.56,SW,215,6.0,10.0,39,0.00,,---,0.01,VWS V14.01,2013-01-16 18:47:00,
2013-01-16 11:52:00,38.7,16.5,30.56,SSE,161,9.0,10.0,40,0.00,,---,0.01,VWS V14.01,2013-01-16 18:52:00,
2013-01-16 11:57:00,38.8,16.6,30.56,SSW,200,5.0,9.0,40,0.00,,---,0.01,VWS V14.01,2013-01-16 18:57:00,
2013-01-16 12:02:00,39.0,16.7,30.55,WSW,256,4.0,8.0,40,0.00,,---,0.01,VWS V14.01,2013-01-16 19:02:00,
2013-01-16 12:07:00,38.9,16.1,30.54,SSW,209,7.0,9.0,39,0.00,,---,0.01,VWS V14.01,2013-01-16 19:07:00,
2013-01-16 12:12:00,39.1,16.2,30.54,SSW,206,6.0,11.0,39,0.00,,---,0.01,VWS V14.01,2013-01-16 19:12:00,
2013-01-16 12:17:00,39.5,15.4,30.54,WSW,252,6.0,8.0,37,0.00,,---,0.01,VWS V14.01,2013-01-16 19:17:00,
2013-01-16 12:22:00,39.4,16.5,30.54,West,272,6.0,11.0,39,0.00,,---,0.01,VWS V14.01,2013-01-16 19:22:00,
2013-01-16 12:27:00,39.6,16.1,30.53,WSW,254,1.0,10.0,38,0.00,,---,0.01,VWS V14.01,2013-01-16 19:27:00,
2013-01-16 12:32:00,39.6,16.1,30.53,WNW,286,10.0,14.0,38,0.00,,---,0.01,VWS V14.01,2013-01-16 19:32:00,
2013-01-16 12:38:00,39.5,16.0,30.53,WNW,291,4.0,14.0,38,0.00,,---,0.01,VWS V14.01,2013-01-16 19:38:00,
2013-01-16 12:43:00,39.6,16.1,30.53,West,271,9.0,11.0,38,0.00,,---,0.01,VWS V14.01,2013-01-16 19:43:00,
2013-01-16 12:48:00,39.0,16.2,30.53,WNW,296,8.0,12.0,39,0.00,,---,0.01,VWS V14.01,2013-01-16 19:48:00,
2013-01-16 12:53:00,38.8,16.0,30.53,West,271,11.0,16.0,39,0.00,,---,0.01,VWS V14.01,2013-01-16 19:53:00,
2013-01-16 12:58:00,38.4,16.2,30.53,WSW,254,12.0,13.0,40,0.00,,---,0.01,VWS V14.01,2013-01-16 19:58:00,
2013-01-16 13:03:00,38.3,16.1,30.53,NNW,336,5.0,6.0,40,0.00,,---,0.01,VWS V14.01,2013-01-16 20:03:00,
2013-01-16 13:08:00,38.4,16.2,30.53,SW,235,9.0,9.0,40,0.00,,---,0.01,VWS V14.01,2013-01-16 20:08:00,
2013-01-16 13:13:00,38.6,15.8,30.53,WNW,286,11.0,14.0,39,0.00,,---,0.01,VWS V14.01,2013-01-16 20:13:00,
2013-01-16 13:18:00,38.5,16.3,30.53,West,273,8.0,11.0,40,0.00,,---,0.01,VWS V14.01,2013-01-16 20:18:00,
2013-01-16 13:23:00,38.4,16.8,30.52,West,274,10.0,14.0,41,0.00,,---,0.01,VWS V14.01,2013-01-16 20:23:00,
2013-01-16 13:28:00,38.6,15.8,30.52,NNW,337,5.0,12.0,39,0.00,,---,0.01,VWS V14.01,2013-01-16 20:28:00,
2013-01-16 13:33:00,38.8,16.6,30.52,West,281,6.0,11.0,40,0.00,,---,0.01,VWS V14.01,2013-01-16 20:33:00,
2013-01-16 13:38:00,38.7,15.9,30.53,SW,229,1.0,5.0,39,0.00,,---,0.01,VWS V14.01,2013-01-16 20:38:00,
2013-01-16 13:43:00,38.7,15.9,30.53,West,259,5.0,11.0,39,0.00,,---,0.01,VWS V14.01,2013-01-16 20:43:00,
2013-01-16 13:48:00,38.4,16.2,30.53,WSW,240,6.0,14.0,40,0.00,,---,0.01,VWS V14.01,2013-01-16 20:48:00,
2013-01-16 13:54:00,38.4,16.2,30.53,WNW,282,12.0,12.0,40,0.00,,---,0.01,VWS V14.01,2013-01-16 20:54:00,
2013-01-16 13:59:00,38.3,16.1,30.53,WSW,244,12.0,15.0,40,0.00,,---,0.01,VWS V14.01,2013-01-16 20:59:00,
2013-01-16 14:04:00,38.1,15.4,30.52,WSW,253,7.0,12.0,39,0.00,,---,0.01,VWS V14.01,2013-01-16 21:04:00,
2013-01-16 14:09:00,37.9,15.8,30.52,West,271,3.0,11.0,40,0.00,,---,0.01,VWS V14.01,2013-01-16 21:09:00,
2013-01-16 14:14:00,38.3,16.1,30.52,WSW,256,7.0,9.0,40,0.00,,---,0.01,VWS V14.01,2013-01-16 21:14:00,
2013-01-16 14:19:00,38.8,16.6,30.52,SW,226,1.0,5.0,40,0.00,,---,0.01,VWS V14.01,2013-01-16 21:19:00,
2013-01-16 14:24:00,39.0,16.2,30.52,SW,233,8.0,8.0,39,0.00,,---,0.01,VWS V14.01,2013-01-16 21:24:00,
2013-01-16 14:29:00,39.1,15.6,30.52,SW,224,4.0,10.0,38,0.00,,---,0.01,VWS V14.01,2013-01-16 21:29:00,
2013-01-16 14:34:00,39.2,15.7,30.52,West,263,12.0,12.0,38,0.00,,---,0.01,VWS V14.01,2013-01-16 21:34:00,
2013-01-16 14:39:00,39.1,15.6,30.52,WSW,246,5.0,12.0,38,0.00,,---,0.01,VWS V14.01,2013-01-16 21:39:00,
2013-01-16 14:44:00,38.8,15.4,30.52,West,269,4.0,9.0,38,0.00,,---,0.01,VWS V14.01,2013-01-16 21:44:00,
2013-01-16 14:49:00,38.6,15.8,30.52,SW,230,1.0,10.0,39,0.00,,---,0.01,VWS V14.01,2013-01-16 21:49:00,
2013-01-16 14:54:00,38.1,15.4,30.53,West,276,5.0,9.0,39,0.00,,---,0.01,VWS V14.01,2013-01-16 21:54:00,
2013-01-16 14:59:00,37.7,15.6,30.53,SSW,209,2.0,7.0,40,0.00,,---,0.01,VWS V14.01,2013-01-16 21:59:00,
2013-01-16 15:04:00,37.7,15.6,30.53,West,275,9.0,10.0,40,0.00,,---,0.01,VWS V14.01,2013-01-16 22:04:00,
2013-01-16 15:09:00,37.3,15.2,30.53,SW,234,2.0,9.0,40,0.00,,---,0.01,VWS V14.01,2013-01-16 22:09:00,
2013-01-16 15:14:00,37.0,14.9,30.53,WSW,258,0.0,5.0,40,0.00,,---,0.01,VWS V14.01,2013-01-16 22:14:00,
2013-01-16 15:19:00,37.0,15.5,30.53,West,279,6.0,9.0,41,0.00,,---,0.01,VWS V14.01,2013-01-16 22:19:00,
2013-01-16 15:24:00,37.0,15.5,30.53,SW,232,0.0,8.0,41,0.00,,---,0.01,VWS V14.01,2013-01-16 22:24:00,
2013-01-16 15:29:00,37.0,14.9,30.53,WSW,243,2.0,9.0,40,0.00,,---,0.01,VWS V14.01,2013-01-16 22:29:00,
2013-01-16 15:34:00,36.9,15.4,30.53,West,263,4.0,8.0,41,0.00,,---,0.01,VWS V14.01,2013-01-16 22:34:00,
2013-01-16 15:39:00,36.7,15.2,30.53,SW,217,10.0,10.0,41,0.00,,---,0.01,VWS V14.01,2013-01-16 22:39:00,
2013-01-16 15:44:00,36.2,14.8,30.54,WSW,257,9.0,10.0,41,0.00,,---,0.01,VWS V14.01,2013-01-16 22:44:00,
2013-01-16 15:49:00,36.1,14.7,30.54,WNW,286,4.0,12.0,41,0.00,,---,0.01,VWS V14.01,2013-01-16 22:49:00,
2013-01-16 15:54:00,35.8,15.0,30.54,West,265,2.0,6.0,42,0.00,,---,0.01,VWS V14.01,2013-01-16 22:54:00,
2013-01-16 15:59:00,35.8,14.4,30.54,WSW,257,3.0,4.0,41,0.00,,---,0.01,VWS V14.01,2013-01-16 22:59:00,
2013-01-16 16:04:00,35.7,14.3,30.54,WSW,254,5.0,6.0,41,0.00,,---,0.01,VWS V14.01,2013-01-16 23:04:00,
2013-01-16 16:09:00,35.7,14.3,30.54,West,262,3.0,5.0,41,0.00,,---,0.01,VWS V14.01,2013-01-16 23:09:00,
2013-01-16 16:14:00,35.5,14.7,30.55,SW,232,4.0,6.0,42,0.00,,---,0.01,VWS V14.01,2013-01-16 23:14:00,
2013-01-16 16:19:00,35.2,14.4,30.54,West,278,3.0,3.0,42,0.00,,---,0.01,VWS V14.01,2013-01-16 23:19:00,
2013-01-16 16:24:00,35.0,14.2,30.54,West,265,4.0,5.0,42,0.00,,---,0.01,VWS V14.01,2013-01-16 23:24:00,
2013-01-16 16:29:00,34.8,14.6,30.54,West,271,4.0,9.0,43,0.00,,---,0.01,VWS V14.01,2013-01-16 23:29:00,
2013-01-16 16:34:00,34.5,14.3,30.54,SW,226,2.0,9.0,43,0.00,,---,0.01,VWS V14.01,2013-01-16 23:34:00,
2013-01-16 16:39:00,34.2,14.1,30.54,SW,227,1.0,4.0,43,0.00,,---,0.01,VWS V14.01,2013-01-16 23:39:00,
2013-01-16 16:44:00,33.9,14.3,30.54,SW,227,0.0,4.0,44,0.00,,---,0.01,VWS V14.01,2013-01-16 23:44:00,
2013-01-16 16:49:00,33.7,14.1,30.54,SW,227,2.0,2.0,44,0.00,,---,0.01,VWS V14.01,2013-01-16 23:49:00,
2013-01-16 16:54:00,33.3,13.8,30.55,SW,227,0.0,4.0,44,0.00,,---,0.01,VWS V14.01,2013-01-16 23:54:00,
2013-01-16 16:59:00,32.8,14.3,30.54,SW,227,0.0,0.0,46,0.00,,---,0.01,VWS V14.01,2013-01-16 23:59:00,
2013-01-16 17:04:00,32.0,13.6,30.55,SW,227,0.0,1.0,46,0.00,,---,0.01,VWS V14.01,2013-01-17 00:04:00,
2013-01-16 17:09:00,31.4,13.5,30.55,SW,227,1.0,4.0,47,0.00,,---,0.01,VWS V14.01,2013-01-17 00:09:00,
2013-01-16 17:14:00,30.9,13.5,30.55,SW,227,2.0,2.0,48,0.00,,---,0.01,VWS V14.01,2013-01-17 00:14:00,
2013-01-16 17:19:00,30.5,13.6,30.55,SW,227,1.0,2.0,49,0.00,,---,0.01,VWS V14.01,2013-01-17 00:19:00,
2013-01-16 17:24:00,30.0,13.2,30.55,SW,227,1.0,5.0,49,0.00,,---,0.01,VWS V14.01,2013-01-17 00:24:00,
2013-01-16 17:29:00,29.7,13.4,30.55,SW,227,1.0,5.0,50,0.00,,---,0.01,VWS V14.01,2013-01-17 00:29:00,
2013-01-16 17:34:00,29.3,13.4,30.56,SW,225,2.0,4.0,51,0.00,,---,0.01,VWS V14.01,2013-01-17 00:34:00,
2013-01-16 17:39:00,28.9,13.5,30.56,SW,225,0.0,2.0,52,0.00,,---,0.01,VWS V14.01,2013-01-17 00:39:00,
2013-01-16 17:44:00,28.6,13.2,30.55,SW,225,1.0,1.0,52,0.00,,---,0.01,VWS V14.01,2013-01-17 00:44:00,
2013-01-16 17:49:00,28.5,13.6,30.55,South,188,2.0,5.0,53,0.00,,---,0.01,VWS V14.01,2013-01-17 00:49:00,
2013-01-16 17:54:00,28.7,13.8,30.56,South,188,1.0,2.0,53,0.00,,---,0.01,VWS V14.01,2013-01-17 00:54:00,
2013-01-16 17:59:00,28.8,13.8,30.56,South,188,0.0,0.0,53,0.00,,---,0.01,VWS V14.01,2013-01-17 00:59:00,
2013-01-16 18:04:00,28.8,13.8,30.56,South,188,0.0,0.0,53,0.00,,---,0.01,VWS V14.01,2013-01-17 01:04:00,
2013-01-16 18:09:00,28.7,13.8,30.56,South,188,0.0,0.0,53,0.00,,---,0.01,VWS V14.01,2013-01-17 01:09:00,
2013-01-16 18:14:00,28.6,13.6,30.56,South,188,0.0,2.0,53,0.00,,---,0.01,VWS V14.01,2013-01-17 01:14:00,
2013-01-16 18:19:00,28.5,13.6,30.56,South,188,0.0,0.0,53,0.00,,---,0.01,VWS V14.01,2013-01-17 01:19:00,
2013-01-16 18:24:00,28.3,13.8,30.56,South,188,0.0,0.0,54,0.00,,---,0.01,VWS V14.01,2013-01-17 01:24:00,
2013-01-16 18:30:00,28.1,13.6,30.56,South,188,0.0,0.0,54,0.00,,---,0.01,VWS V14.01,2013-01-17 01:30:00,
2013-01-16 18:35:00,27.8,13.3,30.56,South,188,0.0,0.0,54,0.00,,---,0.01,VWS V14.01,2013-01-17 01:35:00,
2013-01-16 18:40:00,27.7,13.6,30.56,South,188,0.0,0.0,55,0.00,,---,0.01,VWS V14.01,2013-01-17 01:40:00,
2013-01-16 18:45:00,27.6,13.6,30.56,South,188,0.0,0.0,55,0.00,,---,0.01,VWS V14.01,2013-01-17 01:45:00,
2013-01-16 18:50:00,27.6,14.0,30.56,South,188,2.0,2.0,56,0.00,,---,0.01,VWS V14.01,2013-01-17 01:50:00,
2013-01-16 18:55:00,27.6,14.0,30.56,South,188,1.0,2.0,56,0.00,,---,0.01,VWS V14.01,2013-01-17 01:55:00,
2013-01-16 19:00:00,27.5,13.5,30.57,South,188,1.0,1.0,55,0.00,,---,0.01,VWS V14.01,2013-01-17 02:00:00,
2013-01-16 19:05:00,27.4,13.4,30.57,South,188,0.0,0.0,55,0.00,,---,0.01,VWS V14.01,2013-01-17 02:05:00,
2013-01-16 19:10:00,27.2,13.6,30.56,South,188,0.0,0.0,56,0.00,,---,0.01,VWS V14.01,2013-01-17 02:10:00,
2013-01-16 19:15:00,27.0,13.8,30.56,South,188,0.0,0.0,57,0.00,,---,0.01,VWS V14.01,2013-01-17 02:15:00,
2013-01-16 19:20:00,26.9,14.1,30.56,South,188,1.0,2.0,58,0.00,,---,0.01,VWS V14.01,2013-01-17 02:20:00,
2013-01-16 19:25:00,26.9,14.5,30.56,SSE,155,7.0,7.0,59,0.00,,---,0.01,VWS V14.01,2013-01-17 02:25:00,
2013-01-16 19:30:00,27.3,14.9,30.57,ESE,117,5.0,9.0,59,0.00,,---,0.01,VWS V14.01,2013-01-17 02:30:00,
2013-01-16 19:35:00,27.4,14.6,30.57,ESE,117,2.0,5.0,58,0.00,,---,0.01,VWS V14.01,2013-01-17 02:35:00,
2013-01-16 19:40:00,27.3,14.5,30.57,ESE,117,1.0,5.0,58,0.00,,---,0.01,VWS V14.01,2013-01-17 02:40:00,
2013-01-16 19:45:00,27.0,14.2,30.57,ESE,117,5.0,5.0,58,0.00,,---,0.01,VWS V14.01,2013-01-17 02:45:00,
2013-01-16 19:50:00,26.9,14.5,30.57,ESE,117,1.0,1.0,59,0.00,,---,0.01,VWS V14.01,2013-01-17 02:50:00,
2013-01-16 19:55:00,26.7,14.3,30.57,ESE,117,0.0,0.0,59,0.00,,---,0.01,VWS V14.01,2013-01-17 02:55:00,
2013-01-16 20:00:00,26.5,14.5,30.57,ESE,117,0.0,1.0,60,0.00,,---,0.01,VWS V14.01,2013-01-17 03:00:00,
2013-01-16 20:05:00,26.3,14.3,30.57,ESE,117,0.0,1.0,60,0.00,,---,0.01,VWS V14.01,2013-01-17 03:05:00,
2013-01-16 20:10:00,26.1,14.5,30.57,ESE,117,1.0,3.0,61,0.00,,---,0.01,VWS V14.01,2013-01-17 03:10:00,
2013-01-16 20:15:00,25.9,14.7,30.57,ESE,117,0.0,2.0,62,0.00,,---,0.01,VWS V14.01,2013-01-17 03:15:00,
2013-01-16 20:20:00,25.6,14.4,30.57,ESE,117,0.0,1.0,62,0.00,,---,0.01,VWS V14.01,2013-01-17 03:20:00,
2013-01-16 20:25:00,25.4,14.6,30.57,ESE,117,0.0,0.0,63,0.00,,---,0.01,VWS V14.01,2013-01-17 03:25:00,
2013-01-16 20:30:00,25.1,14.3,30.57,ESE,117,0.0,0.0,63,0.00,,---,0.01,VWS V14.01,2013-01-17 03:30:00,
2013-01-16 20:35:00,24.8,14.4,30.58,ESE,117,0.0,4.0,64,0.00,,---,0.01,VWS V14.01,2013-01-17 03:35:00,
2013-01-16 20:40:00,24.7,14.6,30.58,SE,142,0.0,0.0,65,0.00,,---,0.01,VWS V14.01,2013-01-17 03:40:00,
2013-01-16 20:46:00,24.5,14.4,30.58,SE,142,0.0,0.0,65,0.00,,---,0.01,VWS V14.01,2013-01-17 03:46:00,
2013-01-16 20:51:00,24.5,14.4,30.58,SSE,160,2.0,4.0,65,0.00,,---,0.01,VWS V14.01,2013-01-17 03:51:00,
2013-01-16 20:56:00,24.5,14.4,30.58,SSE,168,4.0,4.0,65,0.00,,---,0.01,VWS V14.01,2013-01-17 03:56:00,
2013-01-16 21:01:00,24.4,14.3,30.58,SSE,168,5.0,6.0,65,0.00,,---,0.01,VWS V14.01,2013-01-17 04:01:00,
2013-01-16 21:06:00,24.3,14.2,30.58,SSE,168,3.0,3.0,65,0.00,,---,0.01,VWS V14.01,2013-01-17 04:06:00,
2013-01-16 21:11:00,24.3,14.2,30.58,SSE,168,1.0,3.0,65,0.00,,---,0.01,VWS V14.01,2013-01-17 04:11:00,
2013-01-16 21:16:00,24.3,14.2,30.58,SSE,168,4.0,5.0,65,0.00,,---,0.01,VWS V14.01,2013-01-17 04:16:00,
2013-01-16 21:21:00,24.2,14.5,30.58,SSE,168,0.0,1.0,66,0.00,,---,0.01,VWS V14.01,2013-01-17 04:21:00,
2013-01-16 21:26:00,24.0,14.0,30.58,SSE,168,1.0,2.0,65,0.00,,---,0.01,VWS V14.01,2013-01-17 04:26:00,
2013-01-16 21:31:00,23.8,14.1,30.58,SSE,168,0.0,1.0,66,0.00,,---,0.01,VWS V14.01,2013-01-17 04:31:00,
2013-01-16 21:36:00,23.6,14.3,30.57,SSE,168,4.0,4.0,67,0.00,,---,0.01,VWS V14.01,2013-01-17 04:36:00,
2013-01-16 21:41:00,23.5,14.2,30.57,SSE,168,1.0,2.0,67,0.00,,---,0.01,VWS V14.01,2013-01-17 04:41:00,
2013-01-16 21:46:00,23.3,14.0,30.57,SSE,168,0.0,2.0,67,0.00,,---,0.01,VWS V14.01,2013-01-17 04:46:00,
2013-01-16 21:51:00,23.0,13.7,30.57,SSE,168,2.0,2.0,67,0.00,,---,0.01,VWS V14.01,2013-01-17 04:51:00,
2013-01-16 21:56:00,22.8,13.5,30.57,SSE,168,3.0,3.0,67,0.00,,---,0.01,VWS V14.01,2013-01-17 04:56:00,
2013-01-16 22:00:00,22.6,13.6,30.57,South,173,1.0,1.0,68,0.00,,---,0.01,VWS V14.01,2013-01-17 05:00:00,
2013-01-16 22:02:00,22.5,13.6,30.57,South,173,1.0,2.0,68,0.00,,---,0.01,VWS V14.01,2013-01-17 05:02:00,
2013-01-16 22:03:00,22.5,13.6,30.57,South,173,2.0,2.0,68,0.00,,---,0.01,VWS V14.01,2013-01-17 05:03:00,
2013-01-16 22:08:00,22.3,13.4,30.57,South,173,4.0,5.0,68,0.00,,---,0.01,VWS V14.01,2013-01-17 05:08:00,
2013-01-16 22:13:00,22.2,13.6,30.57,South,173,1.0,4.0,69,0.00,,---,0.01,VWS V14.01,2013-01-17 05:13:00,
2013-01-16 22:18:00,22.1,13.5,30.57,South,173,2.0,4.0,69,0.00,,---,0.01,VWS V14.01,2013-01-17 05:18:00,
2013-01-16 22:23:00,22.1,13.5,30.56,South,173,5.0,5.0,69,0.00,,---,0.01,VWS V14.01,2013-01-17 05:23:00,
2013-01-16 22:29:00,22.1,13.5,30.56,South,173,3.0,5.0,69,0.00,,---,0.01,VWS V14.01,2013-01-17 05:29:00,
2013-01-16 22:34:00,22.1,13.8,30.56,South,173,5.0,6.0,70,0.00,,---,0.01,VWS V14.01,2013-01-17 05:34:00,
2013-01-16 22:39:00,22.1,13.8,30.56,South,175,4.0,5.0,70,0.00,,---,0.01,VWS V14.01,2013-01-17 05:39:00,
2013-01-16 22:44:00,22.1,13.8,30.56,South,190,1.0,3.0,70,0.00,,---,0.01,VWS V14.01,2013-01-17 05:44:00,
2013-01-16 22:49:00,22.1,13.8,30.56,South,190,0.0,0.0,70,0.00,,---,0.01,VWS V14.01,2013-01-17 05:49:00,
2013-01-16 22:54:00,21.8,13.5,30.57,South,190,0.0,0.0,70,0.00,,---,0.01,VWS V14.01,2013-01-17 05:54:00,
2013-01-16 22:59:00,21.4,13.5,30.57,South,190,0.0,0.0,71,0.00,,---,0.01,VWS V14.01,2013-01-17 05:59:00,
2013-01-16 23:04:00,21.2,13.6,30.57,South,190,0.0,1.0,72,0.00,,---,0.01,VWS V14.01,2013-01-17 06:04:00,
2013-01-16 23:09:00,21.3,13.7,30.56,South,190,0.0,0.0,72,0.00,,---,0.01,VWS V14.01,2013-01-17 06:09:00,
2013-01-16 23:14:00,21.4,13.8,30.57,South,190,0.0,0.0,72,0.00,,---,0.01,VWS V14.01,2013-01-17 06:14:00,
2013-01-16 23:19:00,21.6,14.0,30.57,South,190,0.0,0.0,72,0.00,,---,0.01,VWS V14.01,2013-01-17 06:19:00,
2013-01-16 23:24:00,21.8,14.2,30.57,South,190,0.0,1.0,72,0.00,,---,0.01,VWS V14.01,2013-01-17 06:24:00,
2013-01-16 23:29:00,22.0,14.1,30.57,South,190,1.0,2.0,71,0.00,,---,0.01,VWS V14.01,2013-01-17 06:29:00,
2013-01-16 23:34:00,22.0,14.1,30.56,South,190,0.0,0.0,71,0.00,,---,0.01,VWS V14.01,2013-01-17 06:34:00,
2013-01-16 23:39:00,22.1,14.1,30.57,South,190,0.0,0.0,71,0.00,,---,0.01,VWS V14.01,2013-01-17 06:39:00,
2013-01-16 23:44:00,22.2,13.9,30.57,South,190,0.0,0.0,70,0.00,,---,0.01,VWS V14.01,2013-01-17 06:44:00,
2013-01-16 23:50:00,22.4,14.1,30.57,South,190,2.0,2.0,70,0.00,,---,0.01,VWS V14.01,2013-01-17 06:50:00,
2013-01-16 23:55:00,22.5,14.2,30.57,South,190,2.0,3.0,70,0.00,,---,0.01,VWS V14.01,2013-01-17 06:55:00,